VJC871 VVCR-VVDN

Flight info

Callsign VJC871
Flight time 0h 49m
Altitude 31000
Route KARAN1A KARAN W2 CQ CQ2K
Aircraft A321/M-SDE3FGHIRWY/LB1

Departure

Time 2026-04-18 05:18
Airport Cam Ranh International Airport / Cam Ranh Air Base (VVCR)

Arrival

Time 2026-04-18 06:07
Airport Da Nang International Airport (VVDN)
Time Latitude Longitude Altitude Speed Heading
2026-04-18 04:44 12.00673 109.21656 53 ft 0 kts 289°
2026-04-18 05:03 12.00672 109.21661 53 ft 4 kts 289°
2026-04-18 05:03 12.00663 109.21687 51 ft 4 kts 289°
2026-04-18 05:04 12.00655 109.21713 48 ft 4 kts 288°
2026-04-18 05:04 12.00646 109.21739 49 ft 4 kts 288°
2026-04-18 05:04 12.00638 109.21765 52 ft 4 kts 285°
2026-04-18 05:04 12.00633 109.21788 53 ft 2 kts 273°
2026-04-18 05:05 12.00633 109.21800 53 ft 2 kts 244°
2026-04-18 05:05 12.00640 109.21809 53 ft 2 kts 202°
2026-04-18 05:05 12.00648 109.21812 47 ft 0 kts 199°
2026-04-18 05:06 12.00639 109.21809 53 ft 5 kts 199°
2026-04-18 05:06 12.00568 109.21784 53 ft 16 kts 199°
2026-04-18 05:07 12.00480 109.21754 53 ft 12 kts 198°
2026-04-18 05:07 12.00406 109.21728 53 ft 11 kts 199°
2026-04-18 05:07 12.00337 109.21704 53 ft 10 kts 199°
2026-04-18 05:07 12.00273 109.21682 53 ft 9 kts 199°
2026-04-18 05:08 12.00214 109.21662 53 ft 9 kts 199°
2026-04-18 05:08 12.00160 109.21644 53 ft 8 kts 198°
2026-04-18 05:08 12.00115 109.21653 53 ft 6 kts 136°
2026-04-18 05:08 12.00096 109.21693 53 ft 6 kts 110°
2026-04-18 05:09 12.00082 109.21734 53 ft 6 kts 109°
2026-04-18 05:09 12.00065 109.21771 53 ft 5 kts 132°
2026-04-18 05:09 12.00024 109.21773 53 ft 7 kts 193°
2026-04-18 05:09 11.99954 109.21749 53 ft 12 kts 199°
2026-04-18 05:10 11.99894 109.21728 53 ft 8 kts 199°
2026-04-18 05:10 11.99844 109.21711 53 ft 7 kts 199°
2026-04-18 05:10 11.99800 109.21695 53 ft 6 kts 198°
2026-04-18 05:10 11.99757 109.21681 53 ft 9 kts 199°
2026-04-18 05:11 11.99674 109.21652 52 ft 13 kts 198°
2026-04-18 05:11 11.99589 109.21623 52 ft 13 kts 198°
2026-04-18 05:11 11.99508 109.21595 52 ft 12 kts 198°
2026-04-18 05:11 11.99433 109.21569 52 ft 11 kts 199°
2026-04-18 05:12 11.99362 109.21544 52 ft 10 kts 199°
2026-04-18 05:12 11.99296 109.21521 52 ft 10 kts 199°
2026-04-18 05:12 11.99235 109.21500 52 ft 9 kts 199°
2026-04-18 05:12 11.99179 109.21481 52 ft 8 kts 198°
2026-04-18 05:13 11.99124 109.21462 52 ft 11 kts 198°
2026-04-18 05:13 11.99032 109.21430 52 ft 14 kts 199°
2026-04-18 05:13 11.98939 109.21398 53 ft 14 kts 199°
2026-04-18 05:13 11.98851 109.21367 53 ft 13 kts 199°
2026-04-18 05:14 11.98768 109.21338 53 ft 12 kts 198°
2026-04-18 05:14 11.98690 109.21311 53 ft 11 kts 199°
2026-04-18 05:14 11.98631 109.21291 53 ft 8 kts 199°
2026-04-18 05:14 11.98580 109.21289 53 ft 7 kts 154°
2026-04-18 05:15 11.98561 109.21328 53 ft 6 kts 97°
2026-04-18 05:15 11.98557 109.21369 53 ft 5 kts 102°
2026-04-18 05:15 11.98546 109.21403 53 ft 5 kts 109°
2026-04-18 05:15 11.98540 109.21422 50 ft 4 kts 109°
2026-04-18 05:16 11.98536 109.21459 54 ft 7 kts 82°
2026-04-18 05:16 11.98562 109.21494 54 ft 6 kts 34°
2026-04-18 05:16 11.98602 109.21512 54 ft 6 kts 20°
2026-04-18 05:16 11.98642 109.21528 54 ft 6 kts 19°
2026-04-18 05:17 11.98689 109.21543 54 ft 12 kts 19°
2026-04-18 05:17 11.98973 109.21642 52 ft 79 kts 19°
2026-04-18 05:17 11.99690 109.21890 53 ft 136 kts 18°
2026-04-18 05:17 12.00708 109.22248 247 ft 160 kts 20°
2026-04-18 05:18 12.01735 109.22599 925 ft 156 kts 21°
2026-04-18 05:18 12.02781 109.22961 1390 ft 167 kts 22°
2026-04-18 05:18 12.03939 109.23366 1662 ft 184 kts 22°
2026-04-18 05:18 12.05199 109.23810 1971 ft 199 kts 22°
2026-04-18 05:19 12.06569 109.24294 2145 ft 219 kts 21°
2026-04-18 05:19 12.08102 109.24824 2407 ft 245 kts 21°
2026-04-18 05:19 12.09784 109.25404 2898 ft 262 kts 19°
2026-04-18 05:19 12.11509 109.25996 3640 ft 267 kts 18°
2026-04-18 05:20 12.13281 109.26604 4442 ft 270 kts 18°
2026-04-18 05:20 12.15071 109.27218 5235 ft 273 kts 17°
2026-04-18 05:20 12.16933 109.27589 6019 ft 274 kts
2026-04-18 05:20 12.18814 109.27279 6765 ft 277 kts 340°
2026-04-18 05:21 12.20499 109.26315 7477 ft 280 kts 326°
2026-04-18 05:21 12.22095 109.25147 8178 ft 284 kts 326°
2026-04-18 05:21 12.23713 109.23964 8871 ft 287 kts 326°
2026-04-18 05:21 12.25351 109.22771 9545 ft 291 kts 327°
2026-04-18 05:22 12.27015 109.21566 10166 ft 296 kts 327°
2026-04-18 05:22 12.28783 109.20353 10340 ft 317 kts 329°
2026-04-18 05:22 12.30811 109.19329 10519 ft 332 kts 342°
2026-04-18 05:22 12.33073 109.18756 11030 ft 337 kts 352°
2026-04-18 05:23 12.35422 109.18524 11636 ft 340 kts 356°
2026-04-18 05:23 12.37792 109.18300 12249 ft 344 kts 355°
2026-04-18 05:23 12.40187 109.18058 12873 ft 348 kts 355°
2026-04-18 05:23 12.42608 109.17812 13461 ft 352 kts 354°
2026-04-18 05:24 12.45062 109.17566 14006 ft 356 kts 354°
2026-04-18 05:24 12.47538 109.17322 14527 ft 359 kts 354°
2026-04-18 05:24 12.50042 109.17079 15071 ft 363 kts 354°
2026-04-18 05:24 12.52570 109.16836 15614 ft 367 kts 354°
2026-04-18 05:25 12.55088 109.16596 16147 ft 370 kts 354°
2026-04-18 05:25 12.57662 109.16353 16684 ft 374 kts 354°
2026-04-18 05:25 12.60270 109.16107 17208 ft 378 kts 354°
2026-04-18 05:25 12.62290 109.15917 17609 ft 381 kts 354°
2026-04-18 05:26 12.64502 109.15712 18040 ft 384 kts 354°
2026-04-18 05:26 12.65731 109.15598 18261 ft 386 kts 353°
2026-04-18 05:26 12.68417 109.15354 18716 ft 388 kts 354°
2026-04-18 05:26 12.71117 109.15118 19166 ft 391 kts 354°
2026-04-18 05:27 12.73842 109.14885 19621 ft 394 kts 354°
2026-04-18 05:27 12.76579 109.14654 20064 ft 396 kts 354°
2026-04-18 05:27 12.79336 109.14423 20502 ft 399 kts 354°
2026-04-18 05:27 12.82113 109.14186 20949 ft 401 kts 354°
2026-04-18 05:28 12.84904 109.13945 21377 ft 404 kts 354°
2026-04-18 05:28 12.87719 109.13698 21809 ft 406 kts 354°
2026-04-18 05:28 12.90516 109.13453 22204 ft 409 kts 354°
2026-04-18 05:28 12.93362 109.13206 22624 ft 411 kts 354°
2026-04-18 05:29 12.96226 109.12955 23028 ft 414 kts 354°
2026-04-18 05:29 12.99108 109.12704 23432 ft 416 kts 354°
2026-04-18 05:29 13.02001 109.12453 23767 ft 419 kts 354°
2026-04-18 05:29 13.04910 109.12201 24105 ft 421 kts 354°
2026-04-18 05:30 13.06850 109.12033 24321 ft 422 kts 353°
2026-04-18 05:30 13.08760 109.11853 24525 ft 423 kts 353°
2026-04-18 05:30 13.11703 109.11580 24849 ft 426 kts 353°
2026-04-18 05:30 13.14662 109.11325 25180 ft 428 kts 353°
2026-04-18 05:31 13.17637 109.11079 25514 ft 430 kts 354°
2026-04-18 05:31 13.20631 109.10832 25852 ft 432 kts 353°
2026-04-18 05:31 13.23629 109.10578 26178 ft 434 kts 353°
2026-04-18 05:31 13.26607 109.10322 26505 ft 436 kts 353°
2026-04-18 05:32 13.29644 109.10059 26831 ft 438 kts 353°
2026-04-18 05:32 13.32688 109.09794 27158 ft 441 kts 353°
2026-04-18 05:32 13.35754 109.09529 27468 ft 443 kts 353°
2026-04-18 05:32 13.38832 109.09263 27786 ft 445 kts 353°
2026-04-18 05:33 13.40876 109.09083 27990 ft 446 kts 353°
2026-04-18 05:33 13.42211 109.08967 28154 ft 446 kts 353°
2026-04-18 05:33 13.45316 109.08698 28436 ft 449 kts 353°
2026-04-18 05:33 13.48435 109.08425 28739 ft 451 kts 353°
2026-04-18 05:34 13.51572 109.08150 29024 ft 453 kts 353°
2026-04-18 05:34 13.54717 109.07876 29313 ft 455 kts 353°
2026-04-18 05:34 13.57876 109.07599 29590 ft 457 kts 353°
2026-04-18 05:34 13.61051 109.07316 29856 ft 459 kts 353°
2026-04-18 05:35 13.64213 109.07033 30087 ft 461 kts 353°
2026-04-18 05:35 13.67417 109.06750 30315 ft 462 kts 353°
2026-04-18 05:35 13.70627 109.06468 30542 ft 464 kts 353°
2026-04-18 05:35 13.73855 109.06186 30772 ft 466 kts 353°
2026-04-18 05:36 13.77088 109.05904 30887 ft 466 kts 353°
2026-04-18 05:36 13.80264 109.05629 30918 ft 450 kts 353°
2026-04-18 05:36 13.86407 109.05095 30921 ft 439 kts 353°
2026-04-18 05:37 13.92490 109.04552 30921 ft 438 kts 353°
2026-04-18 05:37 13.98497 109.03635 30922 ft 436 kts 345°
2026-04-18 05:38 14.04413 109.02270 30925 ft 436 kts 345°
2026-04-18 05:38 14.10329 109.00899 30922 ft 436 kts 345°
2026-04-18 05:39 14.16241 108.99534 30918 ft 435 kts 345°
2026-04-18 05:39 14.22123 108.98178 30698 ft 436 kts 345°
2026-04-18 05:40 14.24170 108.97702 30547 ft 436 kts 345°
2026-04-18 05:40 14.27128 108.97010 30319 ft 436 kts 345°
2026-04-18 05:40 14.30088 108.96322 30091 ft 435 kts 345°
2026-04-18 05:40 14.33041 108.95643 29851 ft 434 kts 345°
2026-04-18 05:41 14.35983 108.94969 29586 ft 432 kts 345°
2026-04-18 05:41 14.38915 108.94293 29318 ft 431 kts 345°
2026-04-18 05:41 14.41829 108.93615 29054 ft 429 kts 345°
2026-04-18 05:41 14.44737 108.92936 28793 ft 427 kts 345°
2026-04-18 05:42 14.46655 108.92488 28618 ft 426 kts 345°
2026-04-18 05:42 14.53224 108.90966 27513 ft 417 kts 345°
2026-04-18 05:42 14.54182 108.90745 27353 ft 417 kts 345°
2026-04-18 05:43 14.67202 108.87726 24777 ft 411 kts 345°
2026-04-18 05:44 14.69985 108.87081 24289 ft 409 kts 345°
2026-04-18 05:44 14.72746 108.86437 23823 ft 405 kts 345°
2026-04-18 05:44 14.75332 108.85833 23361 ft 402 kts 345°
2026-04-18 05:44 14.77530 108.85322 22913 ft 400 kts 345°
2026-04-18 05:45 14.80311 108.84678 22343 ft 397 kts 345°
2026-04-18 05:45 14.82985 108.84058 21665 ft 389 kts 345°
2026-04-18 05:45 14.85622 108.83445 20808 ft 386 kts 345°
2026-04-18 05:45 14.88228 108.82837 20064 ft 382 kts 345°
2026-04-18 05:46 14.90812 108.82233 19340 ft 378 kts 345°
2026-04-18 05:46 14.93367 108.81637 18633 ft 375 kts 345°
2026-04-18 05:46 14.95895 108.81048 17916 ft 371 kts 345°
2026-04-18 05:46 14.98245 108.80500 17226 ft 369 kts 345°
2026-04-18 05:47 15.00737 108.79920 16806 ft 365 kts 345°
2026-04-18 05:47 15.03202 108.79347 16322 ft 359 kts 346°
2026-04-18 05:47 15.05630 108.78782 15611 ft 356 kts 346°
2026-04-18 05:47 15.08031 108.78223 14933 ft 352 kts 347°
2026-04-18 05:48 15.10414 108.77666 14285 ft 348 kts 347°
2026-04-18 05:48 15.12763 108.77114 13654 ft 345 kts 347°
2026-04-18 05:48 15.15087 108.76566 12950 ft 341 kts 347°
2026-04-18 05:48 15.17386 108.76027 12258 ft 336 kts 348°
2026-04-18 05:49 15.19657 108.75495 11624 ft 335 kts 348°
2026-04-18 05:49 15.21901 108.74969 11457 ft 325 kts 348°
2026-04-18 05:49 15.24066 108.74461 11332 ft 314 kts 347°
2026-04-18 05:49 15.26169 108.73968 11056 ft 307 kts 348°
2026-04-18 05:50 15.28218 108.73488 10723 ft 305 kts 348°
2026-04-18 05:50 15.30275 108.73006 10460 ft 299 kts 348°
2026-04-18 05:50 15.32276 108.72537 10262 ft 292 kts 348°
2026-04-18 05:50 15.34247 108.72077 9948 ft 289 kts 348°
2026-04-18 05:51 15.36202 108.71620 9596 ft 287 kts 348°
2026-04-18 05:51 15.38149 108.71164 9237 ft 286 kts 348°
2026-04-18 05:51 15.40069 108.70654 8876 ft 284 kts 341°
2026-04-18 05:51 15.41843 108.69831 8746 ft 275 kts 331°
2026-04-18 05:52 15.43404 108.68737 8634 ft 267 kts 324°
2026-04-18 05:52 15.44853 108.67593 8494 ft 257 kts 324°
2026-04-18 05:52 15.46257 108.66485 8248 ft 252 kts 324°
2026-04-18 05:52 15.47646 108.65389 7943 ft 250 kts 324°
2026-04-18 05:53 15.49034 108.64297 7637 ft 249 kts 324°
2026-04-18 05:53 15.50412 108.63215 7349 ft 248 kts 324°
2026-04-18 05:53 15.51786 108.62138 7053 ft 247 kts 324°
2026-04-18 05:53 15.53056 108.61142 6768 ft 246 kts 324°
2026-04-18 05:54 15.54417 108.60071 6478 ft 245 kts 324°
2026-04-18 05:54 15.55769 108.59006 6176 ft 244 kts 324°
2026-04-18 05:54 15.57113 108.57946 5981 ft 242 kts 323°
2026-04-18 05:54 15.58457 108.56886 5975 ft 244 kts 324°
2026-04-18 05:55 15.59794 108.55798 5973 ft 245 kts 318°
2026-04-18 05:55 15.60881 108.54465 5974 ft 246 kts 303°
2026-04-18 05:55 15.61629 108.52864 5901 ft 248 kts 289°
2026-04-18 05:55 15.61965 108.51114 5784 ft 248 kts 277°
2026-04-18 05:56 15.62152 108.49336 5657 ft 247 kts 277°
2026-04-18 05:56 15.62347 108.47564 5528 ft 247 kts 277°
2026-04-18 05:56 15.62545 108.45795 5411 ft 247 kts 277°
2026-04-18 05:56 15.62742 108.44033 5280 ft 246 kts 277°
2026-04-18 05:57 15.63134 108.40519 5048 ft 245 kts 277°
2026-04-18 05:57 15.63319 108.38768 4967 ft 244 kts 273°
2026-04-18 05:57 15.63248 108.37012 4969 ft 244 kts 262°
2026-04-18 05:58 15.63010 108.35269 4971 ft 242 kts 262°
2026-04-18 05:58 15.62829 108.33794 4966 ft 236 kts 263°
2026-04-18 05:58 15.62615 108.32112 4969 ft 234 kts 262°
2026-04-18 05:59 15.62391 108.30460 4972 ft 234 kts 262°
2026-04-18 05:59 15.62410 108.28788 4969 ft 233 kts 284°
2026-04-18 05:59 15.63050 108.27258 4638 ft 236 kts 308°
2026-04-18 05:59 15.64273 108.26153 4390 ft 232 kts 333°
2026-04-18 06:00 15.65801 108.25650 4372 ft 231 kts 353°
2026-04-18 06:00 15.67402 108.25415 4376 ft 233 kts 352°
2026-04-18 06:00 15.69006 108.25174 4377 ft 233 kts 351°
2026-04-18 06:00 15.70584 108.24816 4378 ft 233 kts 348°
2026-04-18 06:01 15.72179 108.24512 4381 ft 233 kts 351°
2026-04-18 06:01 15.73781 108.24271 4384 ft 233 kts 352°
2026-04-18 06:01 15.75386 108.24041 4380 ft 232 kts 352°
2026-04-18 06:01 15.76984 108.23811 4151 ft 232 kts 352°
2026-04-18 06:02 15.78575 108.23581 3879 ft 231 kts 352°
2026-04-18 06:02 15.80165 108.23350 3638 ft 230 kts 352°
2026-04-18 06:02 15.81735 108.23123 3445 ft 223 kts 352°
2026-04-18 06:02 15.83228 108.22906 3292 ft 210 kts 352°
2026-04-18 06:03 15.84658 108.22699 2893 ft 205 kts 353°
2026-04-18 06:03 15.86073 108.22494 2551 ft 204 kts 353°
2026-04-18 06:03 15.87409 108.22300 2464 ft 189 kts 354°
2026-04-18 06:03 15.88653 108.22119 2316 ft 172 kts 354°
2026-04-18 06:04 15.89811 108.21952 2179 ft 164 kts 354°
2026-04-18 06:04 15.90925 108.21790 1973 ft 159 kts 355°
2026-04-18 06:04 15.92028 108.21631 1733 ft 160 kts 356°
2026-04-18 06:04 15.93111 108.21474 1559 ft 156 kts 356°
2026-04-18 06:05 15.94193 108.21317 1512 ft 156 kts 356°
2026-04-18 06:05 15.95265 108.21161 1470 ft 152 kts 356°
2026-04-18 06:05 15.96306 108.21010 1342 ft 150 kts 356°
2026-04-18 06:05 15.97326 108.20862 1181 ft 147 kts 356°
2026-04-18 06:06 15.98341 108.20715 998 ft 147 kts 355°
2026-04-18 06:06 15.99340 108.20567 850 ft 145 kts 356°
2026-04-18 06:06 16.00352 108.20422 617 ft 152 kts 358°
2026-04-18 06:06 16.01392 108.20265 449 ft 150 kts 359°
2026-04-18 06:07 16.02422 108.20120 176 ft 148 kts 356°
2026-04-18 06:07 16.03431 108.19969 34 ft 140 kts 355°
2026-04-18 06:07 16.04178 108.19873 32 ft 78 kts 351°
2026-04-18 06:07 16.04524 108.19817 35 ft 32 kts 352°
2026-04-18 06:08 16.04708 108.19791 34 ft 26 kts 352°
2026-04-18 06:08 16.04864 108.19791 35 ft 17 kts 43°
2026-04-18 06:08 16.04892 108.19888 34 ft 8 kts 83°
2026-04-18 06:08 16.04899 108.19950 34 ft 9 kts 80°
2026-04-18 06:09 16.04909 108.20021 31 ft 11 kts 82°
2026-04-18 06:09 16.04928 108.20084 30 ft 8 kts 47°
2026-04-18 06:09 16.04975 108.20095 32 ft 7 kts 356°
2026-04-18 06:09 16.05017 108.20089 32 ft 5 kts 352°
2026-04-18 06:10 16.05049 108.20085 33 ft 4 kts 352°
2026-04-18 06:10 16.05086 108.20079 33 ft 10 kts 352°
2026-04-18 06:10 16.05184 108.20065 33 ft 16 kts 352°
2026-04-18 06:10 16.05271 108.20052 33 ft 7 kts 351°
2026-04-18 06:11 16.05314 108.20064 33 ft 6 kts 45°
2026-04-18 06:11 16.05326 108.20106 33 ft 6 kts 82°
2026-04-18 06:11 16.05332 108.20149 32 ft 5 kts 82°
2026-04-18 06:11 16.05335 108.20176 32 ft 0 kts 81°